Weather History for Cherry Point, NC

Change the Weather History Date:

Saturday, November 9, 2013

  Actual Average Record
Temperature  
Mean Temperature 48 °F -  
Max Temperature 61 °F 64 °F 78 °F (2000)
Min Temperature 34 °F 43 °F 32 °F (2012)
Degree Days  
Heating Degree Days 18    
Moisture  
Dew Point 40 °F    
Average Humidity 76    
Maximum Humidity 97    
Minimum Humidity 42    
Precipitation  
Precipitation 0.00 in - - ()
Sea Level Pressure  
Sea Level Pressure 30.30 in    
Wind  
Wind Speed 2 mph (East)    
Max Wind Speed 9 mph    
Max Gust Speed -    
Visibility 9 miles    
Events      
Averages and records for this station are not official NWS values.
T = Trace of Precipitation, MM = Missing Value Source: NWS Daily Summary

Daily Weather History Graph

Daily Weather History Graph

Search for Another Location

Airport:

Trip Planner

Search our weather history database for the weather conditions in past years. The results will help you decide how hot, cold, wet, or windy it might be!

Date:

Astronomy

Nov. 09, 2013 Rise Set
Actual Time 6:36 AM EST 5:06 PM EST
Civil Twilight 6:09 AM EST 5:32 PM EST
Nautical Twilight 5:39 AM EST 6:02 PM EST
Astronomical Twilight 5:09 AM EST 6:32 PM EST
Moon 12:13 PM EST (11/9) 11:30 PM EST (11/9)
Length of Visible Light 11h 23m
Length of Day
10h 29m
Waxing Crescent, 44% of the Moon is Illuminated
Nov 9
Waxing Crescent
Nov 10
First Quarter
Nov 17
Full
Nov 25
Last Quarter
Dec 2
New

Hourly Weather History & Observations

Time (EST) Temp. Windchill Dew Point Humidity Pressure Visibility Wind Dir Wind Speed Gust Speed Precip Events Conditions
12:54 AM 37.0 °F - 34.0 °F 89% 30.32 in - Calm Calm - N/A   Clear
1:54 AM 37.0 °F - 34.0 °F 89% 30.32 in - Calm Calm - N/A   Clear
2:54 AM 36.0 °F - 35.1 °F 97% 30.33 in - Calm Calm - N/A   Clear
3:54 AM 37.0 °F - 35.1 °F 93% 30.33 in 7.0 mi Calm Calm - N/A   Clear
4:54 AM 34.0 °F - 32.0 °F 92% 30.33 in 7.0 mi Calm Calm - N/A   Clear
5:34 AM 35.1 °F - 32.0 °F 89% 30.34 in - Calm Calm - N/A   Partly Cloudy
5:54 AM 35.1 °F 32.2 °F 34.0 °F 96% 30.34 in - SW 3.5 mph - N/A   Clear
6:54 AM 36.0 °F - 33.1 °F 89% 30.35 in 7.0 mi Calm Calm - N/A   Clear
7:54 AM 44.1 °F - 39.9 °F 85% 30.37 in 7.0 mi Calm Calm - N/A   Clear
8:54 AM 53.1 °F - 43.0 °F 69% 30.38 in 10.0 mi NNE 4.6 mph - N/A   Clear
9:54 AM 55.9 °F - 33.1 °F 42% 30.37 in 10.0 mi ENE 9.2 mph - N/A   Clear
10:54 AM 57.0 °F - 39.0 °F 51% 30.36 in 10.0 mi ENE 5.8 mph - N/A   Clear
11:54 AM 59.0 °F - 37.9 °F 46% 30.34 in 10.0 mi ENE 5.8 mph - N/A   Scattered Clouds
12:54 PM 59.0 °F - 39.9 °F 49% 30.30 in 10.0 mi NE 4.6 mph - N/A   Scattered Clouds
1:54 PM 60.1 °F - 41.0 °F 49% 30.27 in 10.0 mi Variable 3.5 mph - N/A   Scattered Clouds
2:54 PM 61.0 °F - 43.0 °F 52% 30.25 in 10.0 mi Variable 4.6 mph - N/A   Scattered Clouds
3:54 PM 59.0 °F - 45.0 °F 60% 30.26 in 10.0 mi East 5.8 mph - N/A   Mostly Cloudy
4:54 PM 55.9 °F - 46.0 °F 69% 30.26 in 10.0 mi ESE 4.6 mph - N/A   Mostly Cloudy
5:54 PM 52.0 °F - 46.0 °F 80% 30.27 in 10.0 mi SE 3.5 mph - N/A   Mostly Cloudy
6:54 PM 52.0 °F - 46.0 °F 80% 30.27 in 10.0 mi Calm Calm - N/A   Mostly Cloudy
7:54 PM 51.1 °F - 46.0 °F 83% 30.27 in 10.0 mi Calm Calm - N/A   Mostly Cloudy
8:54 PM 51.1 °F - 46.9 °F 86% 30.24 in 10.0 mi East 5.8 mph - N/A   Clear
9:54 PM 51.1 °F - 46.9 °F 86% 30.23 in 10.0 mi Calm Calm - N/A   Clear
10:54 PM 51.1 °F - 46.9 °F 86% 30.22 in 10.0 mi WSW 4.6 mph - N/A   Mostly Cloudy
11:54 PM 51.1 °F - 46.0 °F 83% 30.21 in 10.0 mi WSW 4.6 mph - N/A   Mostly Cloudy